Weather History for K20V - January, 2013

Change the Weather History Date:

Friday, January 11, 2013

  Actual Average (KEGE) Record (KEGE)
Temperature  
Mean Temperature 10 °F -  
Max Temperature 26 °F 34 °F 55 °F (1990)
Min Temperature -5 °F 4 °F -25 °F (1952)
Degree Days  
Heating Degree Days 54    
Moisture  
Dew Point 1 °F    
Average Humidity 64    
Maximum Humidity 92    
Minimum Humidity 33    
Precipitation  
Precipitation 0.01 in - - ()
Sea Level Pressure  
Sea Level Pressure 29.54 in    
Wind  
Wind Speed 5 mph (West)    
Max Wind Speed 28 mph    
Max Gust Speed 43 mph    
Averages and records for this station are not official NWS values.
T = Trace of Precipitation, MM = Missing Value Source: NWS Daily Summary

Daily Weather History Graph

Daily Weather History Graph

Search for Another Location

Airport or City:

Trip Planner

Search our weather history database for the weather conditions in past years. The results will help you decide how hot, cold, wet, or windy it might be!

Date:

Astronomy

Jan. 11, 2013 Rise Set
Actual Time 7:26 AM MST 5:00 PM MST
Civil Twilight 6:56 AM MST 5:30 PM MST
Nautical Twilight 6:23 AM MST 6:04 PM MST
Astronomical Twilight 5:50 AM MST 6:36 PM MST
Moon 7:02 AM MST (1/11) 5:21 PM MST (1/11)
Length of Visible Light 10h 33m
Length of Day
9h 33m
Waning Crescent, 0% of the Moon is Illuminated
Jan 11
Waning Crescent
Jan 11
New
Jan 18
First Quarter
Jan 26
Full
Feb 3
Last Quarter

Hourly Weather History & Observations

Time (MST) Temp. Windchill Dew Point Humidity Pressure Visibility Wind Dir Wind Speed Gust Speed Precip Events Conditions
12:16 AM -5.8 °F - -11.2 °F 77% 29.54 in - Calm Calm - N/A   Mostly Cloudy
12:35 AM -5.8 °F - -11.2 °F 77% 29.54 in - Calm Calm - N/A   Overcast
12:56 AM -4.0 °F - -7.6 °F 85% 29.52 in - Calm Calm - N/A   Overcast
1:16 AM -0.4 °F -8.3 °F -5.8 °F 78% 29.50 in - ENE 3.5 mph - N/A   Mostly Cloudy
1:36 AM -0.4 °F - -5.8 °F 78% 29.51 in - Calm Calm - N/A   Mostly Cloudy
1:56 AM -0.4 °F - -5.8 °F 78% 29.49 in - Calm Calm - N/A   Overcast
2:16 AM 1.4 °F -6.2 °F -4.0 °F 78% 29.50 in - SSE 3.5 mph - N/A   Unknown
2:36 AM 3.2 °F - -2.2 °F 78% 29.49 in - Calm Calm - N/A Snow Light Snow
2:56 AM 3.2 °F - -0.4 °F 85% 29.47 in - Calm Calm - N/A Snow Light Snow
3:16 AM 3.2 °F -4.2 °F -2.2 °F 78% 29.45 in - WNW 3.5 mph - N/A Snow Light Snow
3:35 AM 3.2 °F - -0.4 °F 85% 29.44 in - Calm Calm - N/A   Overcast
3:56 AM 5.0 °F -5.6 °F -0.4 °F 78% 29.43 in - SSE 5.8 mph - N/A Snow Light Snow
4:16 AM 5.0 °F - 1.4 °F 85% 29.39 in - Calm Calm - N/A Snow Light Snow
4:36 AM 8.6 °F - 5.0 °F 85% 29.38 in - Calm Calm - N/A Snow Light Snow
4:56 AM 8.6 °F - 3.2 °F 79% 29.36 in - Calm Calm - N/A Snow Light Snow
5:16 AM 8.6 °F - 3.2 °F 79% 29.36 in - Calm Calm - N/A Snow Light Snow
5:36 AM 8.6 °F 2.0 °F 3.2 °F 79% 29.37 in - ENE 3.5 mph - 0.01 in Snow Snow
5:56 AM 10.4 °F - 5.0 °F 79% 29.36 in - Calm Calm - 0.01 in Snow Snow
6:16 AM 10.4 °F -0.4 °F 5.0 °F 79% 29.39 in - SSW 6.9 mph - N/A Snow Light Snow
6:36 AM 10.4 °F 0.8 °F 8.6 °F 92% 29.39 in - ENE 5.8 mph - N/A Snow Light Snow
6:56 AM 15.8 °F 5.1 °F 12.2 °F 86% 29.38 in - WNW 8.1 mph - N/A   Unknown
7:15 AM 15.8 °F 7.2 °F 12.2 °F 86% 29.40 in - WNW 5.8 mph - N/A   Unknown
7:36 AM 23.0 °F 18.4 °F 12.2 °F 63% 29.42 in - West 3.5 mph - N/A Snow Light Snow
7:56 AM 23.0 °F 13.9 °F 10.4 °F 59% 29.43 in - WSW 8.1 mph 24.2 mph N/A   Overcast
8:36 AM 23.0 °F 18.4 °F 5.0 °F 46% 29.43 in - SSW 3.5 mph - N/A   Overcast
8:56 AM 23.0 °F 17.0 °F 3.2 °F 43% 29.44 in - West 4.6 mph 16.1 mph N/A   Overcast
9:15 AM 23.0 °F 17.0 °F 1.4 °F 39% 29.44 in - East 4.6 mph - N/A   Mostly Cloudy
9:36 AM 23.0 °F 12.4 °F 5.0 °F 46% 29.44 in - WSW 10.4 mph 23.0 mph N/A   Mostly Cloudy
9:56 AM 23.0 °F 11.7 °F 5.0 °F 46% 29.46 in - West 11.5 mph 23.0 mph N/A   Overcast
10:16 AM 23.0 °F 11.1 °F 3.2 °F 43% 29.48 in - West 12.7 mph 24.2 mph N/A   Overcast
10:36 AM 23.0 °F 18.4 °F 1.4 °F 39% 29.48 in - WNW 3.5 mph - N/A   Overcast
10:56 AM 23.0 °F 18.4 °F -2.2 °F 33% 29.48 in - SSE 3.5 mph - N/A   Mostly Cloudy
11:16 AM 26.6 °F 14.3 °F 1.4 °F 34% 29.46 in - WSW 16.1 mph 23.0 mph N/A   Overcast
11:36 AM 26.6 °F 13.8 °F 3.2 °F 37% 29.45 in - SW 17.3 mph 32.2 mph N/A   Overcast
11:56 AM 26.6 °F 14.3 °F 6.8 °F 43% 29.45 in - WSW 16.1 mph 26.5 mph N/A   Overcast
12:16 PM 24.8 °F 9.6 °F 3.2 °F 40% 29.43 in - WSW 23.0 mph 31.1 mph N/A   Overcast
12:35 PM 23.0 °F 6.6 °F 3.2 °F 43% 29.42 in - WSW 25.3 mph 33.4 mph N/A   Mostly Cloudy
1:13 PM 21.2 °F 3.9 °F 5.0 °F 50% 29.44 in - WSW 26.5 mph 36.8 mph N/A Snow Light Snow
1:36 PM 19.4 °F 1.1 °F 8.6 °F 63% 29.45 in - WSW 27.6 mph 42.6 mph N/A   Mostly Cloudy
1:56 PM 19.4 °F 1.8 °F 5.0 °F 54% 29.46 in - WSW 25.3 mph 35.7 mph N/A Snow Light Snow
2:16 PM 21.2 °F 4.5 °F 3.2 °F 46% 29.47 in - WSW 24.2 mph 33.4 mph N/A   Scattered Clouds
2:36 PM 21.2 °F 4.5 °F 3.2 °F 46% 29.49 in - WSW 24.2 mph 31.1 mph N/A   Mostly Cloudy
2:56 PM 21.2 °F 8.3 °F 1.4 °F 42% 29.53 in - West 13.8 mph 26.5 mph N/A   Scattered Clouds
3:16 PM 21.2 °F 7.8 °F 3.2 °F 46% 29.54 in - North 15.0 mph 25.3 mph N/A   Scattered Clouds
3:36 PM 14.0 °F 2.0 °F 8.6 °F 79% 29.57 in - NW 9.2 mph 24.2 mph N/A Snow Light Snow
3:56 PM 14.0 °F - 8.6 °F 79% 29.58 in - Calm Calm - N/A Snow Light Snow
4:16 PM 14.0 °F - 8.6 °F 79% 29.59 in - Calm Calm - N/A Snow Light Snow
4:36 PM 14.0 °F 6.5 °F 5.0 °F 67% 29.61 in - East 4.6 mph - N/A   Overcast
4:56 PM 14.0 °F - 1.4 °F 57% 29.61 in - Calm Calm - N/A   Overcast
5:16 PM 12.2 °F 1.7 °F 1.4 °F 62% 29.63 in - West 6.9 mph - N/A   Mostly Cloudy
5:36 PM 12.2 °F 2.9 °F 3.2 °F 67% 29.65 in - West 5.8 mph 16.1 mph N/A Snow Light Snow
5:56 PM 12.2 °F -1.0 °F -4.0 °F 48% 29.66 in - WNW 10.4 mph 17.3 mph N/A   Scattered Clouds
6:16 PM 12.2 °F - -4.0 °F 48% 29.68 in - Calm Calm - N/A   Mostly Cloudy
6:36 PM 10.4 °F 4.0 °F -4.0 °F 52% 29.69 in - NE 3.5 mph - N/A   Mostly Cloudy
6:56 PM 8.6 °F - -4.0 °F 57% 29.69 in - Calm Calm - N/A   Scattered Clouds
7:16 PM 10.4 °F -1.5 °F -0.4 °F 62% 29.69 in - North 8.1 mph 17.3 mph N/A   Clear
7:36 PM 8.6 °F 0.1 °F -2.2 °F 62% 29.70 in - North 4.6 mph - N/A   Clear
7:56 PM 10.4 °F 4.0 °F -0.4 °F 62% 29.71 in - North 3.5 mph - N/A   Mostly Cloudy
8:16 PM 10.4 °F - -4.0 °F 52% 29.71 in - Calm Calm - N/A   Mostly Cloudy
8:36 PM 5.0 °F -6.9 °F -4.0 °F 66% 29.73 in - SE 6.9 mph - N/A   Scattered Clouds
8:56 PM 3.2 °F -11.3 °F -4.0 °F 72% 29.73 in - ESE 9.2 mph - N/A   Scattered Clouds
9:16 PM 5.0 °F -4.1 °F -4.0 °F 66% 29.73 in - ESE 4.6 mph - N/A   Clear
9:36 PM 1.4 °F - -5.8 °F 72% 29.74 in - Calm Calm - N/A   Clear
9:56 PM -0.4 °F -8.3 °F -7.6 °F 72% 29.75 in - North 3.5 mph - N/A   Clear
10:36 PM -4.0 °F - -9.4 °F 78% 29.76 in - Calm Calm - N/A   Mostly Cloudy
10:56 PM -4.0 °F - -9.4 °F 78% 29.76 in - Calm Calm - N/A   Overcast
11:16 PM -2.2 °F -10.4 °F -7.6 °F 78% 29.77 in - North 3.5 mph - N/A   Overcast
11:36 PM -2.2 °F - -7.6 °F 78% 29.77 in - Calm Calm - N/A   Overcast
11:56 PM -0.4 °F -12.0 °F -7.6 °F 72% 29.77 in - SE 5.8 mph - N/A   Overcast